Date,TemperatureHighF,TemperatureAvgF,TemperatureLowF,DewpointHighF,DewpointAvgF,DewpointLowF,HumidityHigh,HumidityAvg,HumidityLow,PressureMaxIn,PressureMinIn,WindSpeedMaxMPH,WindSpeedAvgMPH,GustSpeedMaxMPH,PrecipitationSumIn
2013-4-1,72.9,55.4,46.0,0.0,0.0,0.0,0,0,100,0.00,0.00,11,2,12,0.00
2013-4-2,62.6,53.8,47.8,0.0,0.0,0.0,0,0,100,0.00,0.00,7,2,8,0.00
2013-4-3,76.0,56.9,43.4,0.0,0.0,0.0,0,0,100,0.00,0.00,7,2,8,0.00
2013-4-4,56.6,51.8,48.9,0.0,0.0,0.0,0,0,100,0.00,0.00,8,2,11,0.00
2013-4-5,62.6,52.9,47.1,0.0,0.0,0.0,0,0,100,0.00,0.00,13,4,17,0.00
2013-4-6,61.2,48.7,43.7,0.0,0.0,0.0,0,0,100,0.00,0.00,12,4,16,0.00
2013-4-7,49.8,43.5,39.4,0.0,0.0,0.0,0,0,100,0.00,0.00,9,3,11,0.00
2013-4-8,70.9,50.7,41.0,0.0,0.0,0.0,0,0,100,0.00,0.00,7,2,8,0.00
2013-4-9,62.9,50.3,40.5,0.0,0.0,0.0,0,0,100,0.00,0.00,8,2,10,0.00
2013-4-10,71.6,55.4,46.7,0.0,0.0,0.0,0,0,100,0.00,0.00,13,4,15,0.00
2013-4-11,69.1,49.4,43.9,0.0,0.0,0.0,0,0,100,0.00,0.00,8,3,10,0.00
2013-4-12,50.2,43.7,40.4,0.0,0.0,0.0,0,0,100,0.00,0.00,15,3,22,0.00
2013-4-13,55.8,43.8,36.6,0.0,0.0,0.0,0,0,100,0.00,0.00,14,3,18,0.00
2013-4-14,68.3,49.4,37.2,0.0,0.0,0.0,0,0,100,0.00,0.00,9,2,11,0.00
2013-4-15,66.9,48.8,38.4,0.0,0.0,0.0,0,0,100,0.00,0.00,18,2,19,0.00
2013-4-16,68.6,48.5,34.0,0.0,0.0,0.0,0,0,100,0.00,0.00,16,2,22,0.00
2013-4-17,71.9,51.9,37.7,0.0,0.0,0.0,0,0,100,0.00,0.00,8,2,11,0.00
2013-4-18,58.7,48.3,43.8,0.0,0.0,0.0,0,0,100,0.00,0.00,11,3,13,0.00
2013-4-19,58.8,51.1,47.1,0.0,0.0,0.0,0,0,100,0.00,0.00,10,3,13,0.00
2013-4-20,65.8,51.8,45.8,0.0,0.0,0.0,0,0,100,0.00,0.00,9,3,11,0.00
2013-4-21,66.7,49.4,43.5,0.0,0.0,0.0,0,0,100,0.00,0.00,11,4,15,0.00
2013-4-22,67.4,52.3,36.0,0.0,0.0,0.0,0,0,100,0.00,0.00,12,4,14,0.00
2013-4-23,72.7,53.4,33.8,0.0,0.0,0.0,0,0,100,0.00,0.00,12,2,15,0.00
2013-4-24,78.7,59.0,38.5,0.0,0.0,0.0,0,0,100,0.00,0.00,9,2,10,0.00
2013-4-25,85.4,62.7,40.7,0.0,0.0,0.0,0,0,100,0.00,0.00,8,2,9,0.00
2013-4-26,80.0,59.9,44.6,0.0,0.0,0.0,0,0,100,0.00,0.00,8,2,8,0.00
2013-4-27,60.6,54.5,51.7,0.0,0.0,0.0,0,0,100,0.00,0.00,14,4,18,0.00
2013-4-28,71.2,53.7,47.1,0.0,0.0,0.0,0,0,100,0.00,0.00,14,3,17,0.00
2013-4-29,71.6,50.9,40.9,0.0,0.0,0.0,0,0,100,0.00,0.00,14,4,14,0.00
2013-4-30,69.6,50.8,38.2,0.0,0.0,0.0,0,0,100,0.00,0.00,8,3,11,0.00